Location: Woodhurst
(52.3667°N, 0.0667°W)
Time: 01:29:02
(UTC+00:00)

Cosmos 381 Rocket - Pass Details

Date: 19 May 2025
Orbit: 954 x 995 km, 74.0° (Epoch: 18 June)

Event Time Altitude Azimuth Distance (km) Brightness Sun altitude
Exits shadow 23:17:14 22° 198° (SSW) 1,968 5.6 -17.1°
Maximum altitude 23:21:28 83° 114° (ESE) 996 4.5 -17.2°
Drops below altitude 10° 23:27:53 10° 27° (NNE) 2,758 7.7 -17.4°
Sets 23:30:27 0° 27° (NNE) 3,715 8.5 -17.4°
